Flag Weather past 2 weeks in Wolfsburg, Lower Saxony, Germany

Now
36 °F

Overcast.


Feels Like: 26 °F
Forecast: 28 / 33 °F
Wind: 16 mph from East

Location: Braunschweig

Current Time: Nov 29, 2014 at 1:19:42 AM

Latest Report: Nov 28, 2014 at 9:50 PM


Visibility: 4 mi

Pressure: 30.07 "Hg

Humidity: 87%

Dew point: 32 °F

Location of WolfsburgLocation

Historic Weather in Wolfsburg — Graph

°F

Wolfsburg temperature yesterday

Maximum temperature yesterday: 37 °F (at 7:50 AM)
Minimum temperature yesterday: 34 °F (at 10:50 AM)
Average temperature yesterday: 36 °F

Past Weeks' High & Low Weather Summary

 TemperatureHumidityPressure
High54 °F (Nov 14, 12:50 PM)100% (Nov 13, 9:20 PM)30.36 "Hg (Nov 13, 9:20 PM)
Low32 °F (Nov 27, 4:50 AM)72% (Nov 17, 3:20 PM)29.50 "Hg (Nov 16, 1:20 PM)
Average43 °F94%30.04 "Hg
* Reported Nov 13 9:20 PM — Nov 28 9:50 PM, Wolfsburg, Weather by CustomWeather, © 2014

Note: Actual official high and low records may vary slightly from our data, if they occured in-between our weather recording intervals... More about our weather records

Advertising

Wolfsburg weather history for previous 24 hours

 ConditionsComfort  
Time TempWeatherWind HumidityBarometerVisibility
9:50 PM
Nov 28
36 °FOvercast.16 mph87%30.07 "Hg4 mi
9:20 PM36 °FOvercast.15 mph87%30.07 "Hg4 mi
8:50 PM36 °FOvercast.14 mph87%30.07 "Hg4 mi
8:20 PM36 °FOvercast.13 mph87%30.07 "Hg4 mi
7:50 PM36 °FOvercast.15 mph87%30.07 "Hg4 mi
7:20 PM36 °FOvercast.14 mph87%30.07 "Hg4 mi
6:50 PM36 °FOvercast.15 mph87%30.07 "Hg4 mi
6:20 PM36 °FOvercast.16 mph87%30.07 "Hg5 mi
5:50 PM36 °FOvercast.17 mph87%30.04 "Hg6 mi
5:20 PM36 °FOvercast.15 mph87%30.04 "Hg6 mi
4:50 PM36 °FOvercast.16 mph81%30.04 "Hg5 mi
4:20 PM36 °FOvercast.16 mph81%30.04 "Hg5 mi
3:50 PM36 °FOvercast.14 mph87%30.04 "HgN/A
3:20 PM36 °FOvercast.14 mph87%30.01 "HgN/A
2:50 PM36 °FOvercast.15 mph81%30.01 "HgN/A
2:20 PM36 °FOvercast.16 mph81%30.01 "HgN/A
1:50 PM36 °FPartly sunny.15 mph87%30.01 "Hg5 mi
12:50 PM36 °FPartly sunny.15 mph81%30.04 "Hg6 mi
12:20 PM36 °FPartly sunny.15 mph87%30.04 "Hg5 mi
11:50 AM36 °FPartly sunny.16 mph81%30.04 "Hg5 mi
11:20 AM34 °FPartly sunny.15 mph87%30.04 "Hg5 mi
10:50 AM34 °FOvercast.15 mph87%30.04 "Hg5 mi
10:20 AM36 °FPartly sunny.16 mph81%30.04 "Hg5 mi
9:50 AM36 °FPartly sunny.15 mph87%30.01 "Hg6 mi
9:20 AM36 °FPartly sunny.16 mph87%30.01 "Hg6 mi
8:50 AM36 °FPartly sunny.17 mph87%30.01 "Hg6 mi
8:20 AM36 °FPartly sunny.16 mph87%29.98 "Hg6 mi
7:50 AM37 °FPassing clouds.17 mph81%29.98 "Hg6 mi
7:20 AM36 °FPassing clouds.17 mph87%29.98 "HgN/A
6:50 AM36 °FMostly cloudy.16 mph87%29.98 "HgN/A
Weather by CustomWeather, © 2014

See weather overviewHow to use our weather pages